Gage, OK

2:28 PM CST on January 19, 2018 (GMT -0600)
Gage

Weather History for KGAG - October, 2012

Change the Weather History Date:

Friday, October 5, 2012

  Actual Average Record
Temperature  
Mean Temperature 53 °F -  
Max Temperature 61 °F 77 °F 94 °F (1956)
Min Temperature 46 °F 50 °F 31 °F (1991)
Degree Days  
Heating Degree Days 12    
Growing Degree Days 3 (Base 50)    
Moisture  
Dew Point 35 °F    
Average Humidity 52    
Maximum Humidity 74    
Minimum Humidity 37    
Precipitation  
Precipitation 0.00 in - - ()
Sea Level Pressure  
Sea Level Pressure 30.20 in    
Wind  
Wind Speed 10 mph (NE)    
Max Wind Speed 18 mph    
Max Gust Speed 25 mph    
Visibility 10 miles    
Events      
Averages and records for this station are not official NWS values.
T = Trace of Precipitation, MM = Missing Value Source: NWS Daily Summary

Daily Weather History Graph

Daily Weather History Graph

Search for Another Location

Airport or City:

Trip Planner

Search our weather history database for the weather conditions in past years. The results will help you decide how hot, cold, wet, or windy it might be!

Date:

Astronomy

Oct. 05, 2012 Rise Set
Actual Time 7:38 AM CDT 7:16 PM CDT
Civil Twilight 7:12 AM CDT 7:41 PM CDT
Nautical Twilight 6:42 AM CDT 8:11 PM CDT
Astronomical Twilight 6:12 AM CDT 8:41 PM CDT
Moon 10:49 PM CDT (10/5) 12:38 PM CDT (10/5)
Length of Visible Light 12h 29m
Length of Day
11h 38m
Waning Gibbous, 74% of the Moon is Illuminated
Oct 5
Waning Gibbous
Oct 8
Last Quarter
Oct 15
New
Oct 21
First Quarter
Oct 29
Full

Hourly Weather History & Observations

Time (CDT) Temp. Windchill Dew Point Humidity Pressure Visibility Wind Dir Wind Speed Gust Speed Precip Events Conditions
12:53 AM 54.0 °F - 37.9 °F 55% 30.22 in 10.0 mi NE 9.2 mph - N/A   Overcast
1:53 AM 53.1 °F - 37.0 °F 55% 30.21 in 10.0 mi NE 8.1 mph - N/A   Overcast
2:53 AM 51.8 °F - 37.4 °F 58% 30.22 in 10.0 mi ENE 8.1 mph - N/A   Overcast
3:53 AM 50.0 °F - 37.9 °F 63% 30.18 in 10.0 mi NE 6.9 mph - N/A   Clear
4:53 AM 48.0 °F - 39.0 °F 71% 30.17 in 10.0 mi ENE 4.6 mph - N/A   Clear
5:53 AM 46.9 °F - 39.0 °F 74% 30.19 in 10.0 mi NE 5.8 mph - N/A   Clear
6:53 AM 48.0 °F - 39.0 °F 71% 30.19 in 10.0 mi NE 6.9 mph - N/A   Overcast
7:53 AM 46.9 °F - 39.0 °F 74% 30.19 in 10.0 mi ENE 6.9 mph - N/A   Scattered Clouds
8:53 AM 50.0 °F - 37.9 °F 63% 30.18 in 10.0 mi ENE 5.8 mph - N/A   Clear
9:53 AM 52.0 °F - 37.0 °F 57% 30.20 in 10.0 mi ENE 11.5 mph - N/A   Clear
10:53 AM 55.4 °F - 37.4 °F 51% 30.22 in 10.0 mi ENE 11.5 mph - N/A   Scattered Clouds
11:53 AM 55.9 °F - 37.0 °F 49% 30.21 in 10.0 mi NE 16.1 mph 20.7 mph N/A   Overcast
12:53 PM 57.0 °F - 36.0 °F 45% 30.21 in 10.0 mi NE 13.8 mph - N/A   Overcast
1:53 PM 57.2 °F - 35.6 °F 44% 30.21 in 10.0 mi ENE 10.4 mph 18.4 mph N/A   Overcast
2:53 PM 60.1 °F - 35.1 °F 39% 30.16 in 10.0 mi NNE 17.3 mph 23.0 mph N/A   Overcast
3:53 PM 60.1 °F - 34.0 °F 38% 30.14 in 10.0 mi NE 15.0 mph 21.9 mph N/A   Overcast
4:53 PM 57.9 °F - 32.0 °F 37% 30.15 in 10.0 mi ENE 12.7 mph 20.7 mph N/A   Overcast
5:53 PM 57.0 °F - 32.0 °F 39% 30.16 in 10.0 mi ENE 15.0 mph - N/A   Overcast
6:53 PM 55.0 °F - 30.9 °F 40% 30.18 in 10.0 mi NE 15.0 mph - N/A   Overcast
7:53 PM 54.0 °F - 30.9 °F 41% 30.21 in 10.0 mi ENE 13.8 mph - N/A   Overcast
8:53 PM 52.0 °F - 30.0 °F 43% 30.24 in 10.0 mi ENE 18.4 mph 25.3 mph N/A   Overcast
9:53 PM 51.1 °F - 26.1 °F 38% 30.25 in 10.0 mi ENE 13.8 mph 23.0 mph N/A   Overcast
10:53 PM 48.0 °F - 30.0 °F 50% 30.28 in 10.0 mi NE 16.1 mph 24.2 mph N/A   Overcast
11:53 PM 46.0 °F 39.3 °F 32.0 °F 58% 30.29 in 10.0 mi NE 16.1 mph 24.2 mph N/A   Overcast